Weather History for 94578 - October, 2013

Change the Weather History Date:

Wednesday, October 30, 2013

  Actual Average Record
Temperature  
Mean Temperature 68 °F -  
Max Temperature 77 °F 81 °F - ()
Min Temperature 60 °F 65 °F - ()
Cooling Degree Days 4    
Growing Degree Days 18 (Base 50)    
Moisture  
Dew Point 59 °F    
Average Humidity 68    
Maximum Humidity 94    
Minimum Humidity 44    
Precipitation  
Precipitation 0.01 in 0.14 in - ()
Sea Level Pressure  
Sea Level Pressure 29.96 in    
Wind  
Wind Speed 9 mph ()    
Max Wind Speed 18 mph    
Max Gust Speed 31 mph    
Visibility 7.7 miles    
Events      
T = Trace of Precipitation, MM = Missing Value Source: Averaged Metar Reports

Daily Weather History Graph

Daily Weather History Graph

Search for Another Location

Airport or City:

Trip Planner

Search our weather history database for the weather conditions in past years. The results will help you decide how hot, cold, wet, or windy it might be!

Date:

Astronomy

Oct. 30, 2013 Rise Set
Actual Time 4:58 AM AEST 6:04 PM AEST
Civil Twilight 4:33 AM AEST 6:28 PM AEST
Nautical Twilight 4:05 AM AEST 6:57 PM AEST
Astronomical Twilight 3:35 AM AEST 7:27 PM AEST
Moon 1:51 AM AEST (10/30) 1:55 PM AEST (10/30)
Length of Visible Light 13h 54m
Length of Day
13h 06m
Waning Crescent, 22% of the Moon is Illuminated
Oct 30
Waning Crescent
Nov 3
New
Nov 10
First Quarter
Nov 18
Full
Nov 26
Last Quarter

Hourly Weather History & Observations

Time (AEST) Temp. Dew Point Humidity Pressure Visibility Wind Dir Wind Speed Gust Speed Precip Events Conditions
12:00 AM 66 °F 58 °F 68% 29.91 in 16 mi NW 15.0 mph - -   Partly Cloudy
12:00 AM 66.2 °F 57.2 °F 73% 29.89 in 6.2 mi NW 15.0 mph - N/A   Scattered Clouds
12:30 AM 66.2 °F 57.2 °F 73% 29.89 in 6.2 mi NW 10.4 mph - N/A   Scattered Clouds
1:00 AM 66 °F 58 °F 69% 29.89 in - WNW 8.1 mph - -  
1:00 AM 66.2 °F 59.0 °F 78% 29.89 in 6.2 mi WNW 8.1 mph - N/A   Scattered Clouds
1:30 AM 66.2 °F 59.0 °F 78% 29.86 in - WNW 9.2 mph - N/A   Clear
2:00 AM 62.6 °F 59.0 °F 88% 29.86 in - SW 5.8 mph - N/A   Clear
2:30 AM 62.6 °F 60.8 °F 94% 29.86 in - WSW 1.2 mph - N/A   Clear
3:00 AM 63 °F 60 °F 85% 29.87 in 16 mi Calm Calm - -   Partly Cloudy
3:00 AM 62.6 °F 59.0 °F 88% 29.86 in - Calm Calm - N/A   Clear
3:30 AM 60.8 °F 59.0 °F 94% 29.86 in - Calm Calm - N/A   Clear
4:00 AM 62 °F 59 °F 88% 29.88 in - Calm Calm - -  
4:00 AM 62.6 °F 59.0 °F 88% 29.86 in 6.2 mi Calm Calm - N/A   Partly Cloudy
4:30 AM 60.8 °F 59.0 °F 94% 29.89 in 6.2 mi Calm Calm - N/A   Partly Cloudy
5:00 AM 64.4 °F 59.0 °F 83% 29.89 in 6.2 mi SSE 5.8 mph - N/A   Partly Cloudy
5:30 AM 64.4 °F 60.8 °F 88% 29.92 in 6.2 mi SE 5.8 mph - N/A   Partly Cloudy
6:00 AM 68 °F 61 °F 73% 29.95 in 16 mi SE 4.6 mph - -   Partly Cloudy
6:00 AM 68.0 °F 60.8 °F 78% 29.95 in 6.2 mi SE 4.6 mph - N/A   Partly Cloudy
6:30 AM 68.0 °F 60.8 °F 78% 29.95 in 6.2 mi SSE 3.5 mph - N/A   Mostly Cloudy
7:00 AM 68 °F 61 °F 73% 29.97 in - SSE 3.5 mph - -  
7:00 AM 68.0 °F 60.8 °F 78% 29.95 in 6.2 mi SSE 3.5 mph - N/A   Mostly Cloudy
7:30 AM 69.8 °F 60.8 °F 73% 29.98 in 6.2 mi SE 5.8 mph - N/A   Mostly Cloudy
8:00 AM 69.8 °F 60.8 °F 73% 29.98 in 6.2 mi SSE 8.1 mph - N/A   Mostly Cloudy
8:30 AM 71.6 °F 59.0 °F 64% 29.98 in 6.2 mi SSE 8.1 mph - N/A   Mostly Cloudy
9:00 AM 71 °F 59 °F 57% 29.99 in 16 mi SE 8.1 mph - -   Partly Cloudy
9:00 AM 71.6 °F 59.0 °F 64% 29.98 in 6.2 mi SE 8.1 mph - N/A   Mostly Cloudy
9:30 AM 71.6 °F 59.0 °F 64% 29.98 in 6.2 mi SSE 8.1 mph - N/A   Mostly Cloudy
10:00 AM 74 °F 59 °F 51% 29.99 in - SE 9.2 mph - -  
10:00 AM 75.2 °F 59.0 °F 57% 29.98 in 6.2 mi SE 9.2 mph - N/A   Mostly Cloudy
10:30 AM 73.4 °F 59.0 °F 61% 29.98 in 6.2 mi SE 8.1 mph - N/A   Mostly Cloudy
11:00 AM 77.0 °F 60.8 °F 57% 29.98 in 6.2 mi East 9.2 mph - N/A   Scattered Clouds
11:30 AM 77.0 °F 60.8 °F 57% 29.95 in 6.2 mi ESE 11.5 mph - N/A   Scattered Clouds
12:00 PM 77 °F 60 °F 45% 29.96 in 19 mi ESE 11.5 mph - -   Partly Cloudy
12:00 PM 77.0 °F 59.0 °F 54% 29.95 in 6.2 mi ESE 11.5 mph - N/A   Scattered Clouds
12:30 PM 77.0 °F 59.0 °F 54% 29.95 in 6.2 mi East 13.8 mph - N/A   Partly Cloudy
1:00 PM 76 °F 58 °F 44% 29.95 in - ESE 15.0 mph - -  
1:00 PM 75.2 °F 59.0 °F 57% 29.95 in 6.2 mi ESE 15.0 mph - N/A   Partly Cloudy
1:30 PM 75.2 °F 57.2 °F 53% 29.95 in 6.2 mi ESE 15.0 mph - N/A   Partly Cloudy
2:00 PM 77.0 °F 59.0 °F 54% 29.92 in 6.2 mi ESE 15.0 mph - N/A   Partly Cloudy
2:30 PM 75.2 °F 59.0 °F 57% 29.92 in 6.2 mi ESE 16.1 mph - N/A   Partly Cloudy
3:00 PM 74 °F 60 °F 53% 29.95 in 19 mi ESE 16.1 mph - -   Partly Cloudy
3:00 PM 75.2 °F 60.8 °F 61% 29.95 in 6.2 mi ESE 16.1 mph - N/A   Partly Cloudy
3:30 PM 73.4 °F 59.0 °F 61% 29.95 in 6.2 mi ESE 16.1 mph 29.9 mph N/A   Partly Cloudy
4:00 PM 73 °F 60 °F 56% 29.95 in - ESE 18.4 mph - -  
4:00 PM 73.4 °F 60.8 °F 65% 29.95 in 6.2 mi ESE 18.4 mph 31.1 mph N/A   Partly Cloudy
4:30 PM 73.4 °F 60.8 °F 65% 29.95 in 6.2 mi ESE 17.3 mph - N/A   Partly Cloudy
5:00 PM 71.6 °F 60.8 °F 69% 29.98 in 6.2 mi ESE 16.1 mph - N/A   Partly Cloudy
5:30 PM 71.6 °F 60.8 °F 69% 29.98 in 6.2 mi ESE 15.0 mph - N/A   Mostly Cloudy
6:00 PM 71 °F 59 °F 58% 30.01 in 12 mi ESE 16.1 mph - -   Partly Cloudy
6:00 PM 71.6 °F 59.0 °F 64% 30.01 in 6.2 mi ESE 16.1 mph 28.8 mph N/A   Mostly Cloudy
6:30 PM 71.6 °F 60.8 °F 69% 30.01 in 6.2 mi ESE 13.8 mph 25.3 mph N/A   Mostly Cloudy
7:00 PM 71 °F 60 °F 60% 30.03 in - ESE 12.7 mph - -  
7:00 PM 71.6 °F 60.8 °F 69% 30.01 in 6.2 mi ESE 12.7 mph - N/A   Mostly Cloudy
7:30 PM 69.8 °F 62.6 °F 78% 30.04 in 6.2 mi East 13.8 mph - N/A   Mostly Cloudy
8:00 PM 71.6 °F 59.0 °F 64% 30.06 in 6.2 mi ESE 12.7 mph - N/A   Mostly Cloudy
8:30 PM 71.6 °F 59.0 °F 64% 30.06 in 6.2 mi ESE 10.4 mph - N/A   Mostly Cloudy
9:00 PM 71 °F 58 °F 55% 30.09 in 12 mi ESE 10.4 mph - -   Partly Cloudy
9:00 PM 69.8 °F 59.0 °F 68% 30.06 in 6.2 mi ESE 10.4 mph - N/A   Mostly Cloudy
9:30 PM 69.8 °F 57.2 °F 64% 30.06 in 6.2 mi ESE 11.5 mph - N/A   Mostly Cloudy
10:00 PM 71 °F 58 °F 53% 30.09 in - ESE 10.4 mph - -  
10:00 PM 69.8 °F 57.2 °F 64% 30.06 in 6.2 mi ESE 10.4 mph - N/A   Mostly Cloudy
10:30 PM 69.8 °F 59.0 °F 68% 30.06 in 6.2 mi SE 8.1 mph - N/A   Mostly Cloudy
11:00 PM 69.8 °F 57.2 °F 64% 30.06 in 6.2 mi SE 11.5 mph - N/A   Mostly Cloudy
11:30 PM 69.8 °F 59.0 °F 68% 30.06 in 6.2 mi ESE 9.2 mph - N/A   Mostly Cloudy